Location: *
(34.6903°N, 135.5184°E)
Time: 10:11:37
(UTC+00:00)

ASTRO E2 - Pass Details

Date: 22 September 2019
Orbit: 511 x 517 km, 31.4° (Epoch: 22 October)

Event Time Altitude Azimuth Distance (km) Brightness Sun altitude
Exits shadow 20:20:12 - 262° (W) 1,914 4.9 -6.1°
Reaches altitude 10° 20:20:44 10° 259° (W) 1,724 4.7 -6.0°
Maximum altitude 20:24:16 31° 196° (SSW) 913 3.8 -5.3°
Drops below altitude 10° 20:27:48 10° 133° (SE) 1,724 6.0 -4.6°
Sets 20:30:12 0° 123° (ESE) 2,610 7.3 -4.1°
